Weather in Ilyinskoye

Russia / Udmurt Republic     56˚28′57″N   52˚47′12″E
temp.,
°C
wind,
m/s
gust,
m/s
humid.,
%
clouds,
%
prec.,
mm/h
press.,
hPa
HPBL,
m
16 january, sat
sat1601:00−12˚ene489799 0.1 1009198
04:00−11˚ene5109699 0.1 1006289
07:00−9˚e61195100 4.9 1002486
10:00−8˚ese51095100 6.3 999505
13:00−7˚se4795100 1.0 998404
16:00−6˚ssw61194100 1.4 997651
19:00−11˚ssw61392100 0.2 998630
22:00−11˚ssw6129299 0.4 998674
17 january, sun
sun1701:00−12˚ssw51193100 0.3 997639
04:00−13˚sw61194100 0.5 997587
07:00−14˚wsw61293100 0.4 998583
10:00−14˚w6119199 0.6 1001524
13:00−13˚w61090100 0.1 1004687
16:00−16˚w3793100 0.1 1008162
19:00−19˚w369799 0.1 1011100
22:00−22˚wnw339989 0.1 101436
18 january, mon
mon1801:00−25˚wnw239816 0.0 101620
04:00−26˚wnw22988 0.0 101719
07:00−27˚w12990 0.0 101819
10:00−26˚w119614 0.0 101919
13:00−21˚wnw11920 0.0 1019172
16:00−23˚wsw239626 0.0 102020
19:00−26˚nnw119810 0.0 102020
22:00−27˚nw0010033 0.0 102020
19 january, tue
tue1901:00−25˚n1295100 0.0 102020
04:00−24˚nne2396100 0.0 101950
07:00−24˚ne3695100 0.0 1019166
10:00−22˚ne4796100 0.0 1019238
13:00−20˚ne5995100 0.0 1018276
16:00−20˚ne61090100 0.0 1016321
19:00−20˚ne61286100 0.0 1016327
22:00−21˚ne61287100 0.0 1016326
20 january, wed
wed2001:00−21˚ne51190100 0.0 1017307
04:00−21˚ne51092100 0.0 1018254
07:00−22˚ne41094100 0.0 1020203
10:00−24˚ne479488 0.0 1021132
13:00−19˚ne35907 0.0 1022209
16:00−21˚ne33924 0.0 102322
19:00−25˚ne22880 0.0 102520
22:00−26˚ne11880 0.0 102620